Time,TemperatureF,DewpointF,PressureIn,WindDirection,WindDirectionDegrees,WindSpeedMPH,WindSpeedGustMPH,Humidity,HourlyPrecipIn,Conditions,Clouds,dailyrainin,SoftwareType,DateUTC
2013-06-26 00:01:00,71.8,31.6,29.90,WNW,292,0.0,0.0,23,0.00,,,0.00,WUHU21423XXSP,2013-06-26 04:01:00,
2013-06-26 00:04:00,71.8,31.6,29.90,WNW,292,0.0,0.0,23,0.00,,,0.00,WUHU21423XXSP,2013-06-26 04:04:00,
2013-06-26 00:06:00,71.8,31.6,29.90,WNW,292,0.0,0.0,23,0.00,,,0.00,WUHU21423XXSP,2013-06-26 04:06:00,
2013-06-26 00:10:00,71.8,31.6,29.91,WNW,292,0.0,0.0,23,0.00,,,0.00,WUHU21423XXSP,2013-06-26 04:10:00,
2013-06-26 00:16:00,71.8,31.6,29.91,WNW,292,0.0,0.0,23,0.00,,,0.00,WUHU21423XXSP,2013-06-26 04:16:00,
2013-06-26 00:19:00,71.8,31.6,29.90,WNW,292,0.0,0.0,23,0.00,,,0.00,WUHU21423XXSP,2013-06-26 04:19:00,
2013-06-26 00:25:00,71.4,31.3,29.90,WNW,292,0.0,0.0,23,0.00,,,0.00,WUHU21423XXSP,2013-06-26 04:25:00,
2013-06-26 00:31:00,71.2,31.2,29.90,WNW,292,0.0,0.0,23,0.00,,,0.00,WUHU21423XXSP,2013-06-26 04:31:00,
2013-06-26 00:38:00,71.2,30.1,29.90,WNW,292,0.0,0.0,22,0.00,,,0.00,WUHU21423XXSP,2013-06-26 04:38:00,
2013-06-26 00:44:00,71.2,30.1,29.90,WNW,292,0.0,0.0,22,0.00,,,0.00,WUHU21423XXSP,2013-06-26 04:44:00,
2013-06-26 00:51:00,71.2,30.1,29.91,WNW,292,0.0,0.0,22,0.00,,,0.00,WUHU21423XXSP,2013-06-26 04:51:00,
2013-06-26 00:57:00,71.2,30.1,29.90,WNW,292,0.0,0.0,22,0.00,,,0.00,WUHU21423XXSP,2013-06-26 04:57:00,
2013-06-26 01:04:00,70.9,29.9,29.90,WNW,292,0.0,0.0,22,0.00,,,0.00,WUHU21423XXSP,2013-06-26 05:04:00,
2013-06-26 01:10:00,70.9,29.9,29.89,WNW,292,0.0,0.0,22,0.00,,,0.00,WUHU21423XXSP,2013-06-26 05:10:00,
2013-06-26 01:17:00,70.9,29.9,29.90,WNW,292,0.0,0.0,22,0.00,,,0.00,WUHU21423XXSP,2013-06-26 05:17:00,
2013-06-26 01:23:00,70.7,29.7,29.90,WNW,292,0.0,0.0,22,0.00,,,0.00,WUHU21423XXSP,2013-06-26 05:23:00,
2013-06-26 01:29:00,70.7,29.7,29.90,WNW,292,0.0,0.0,22,0.00,,,0.00,WUHU21423XXSP,2013-06-26 05:29:00,
2013-06-26 01:36:00,70.5,29.6,29.90,WNW,292,0.0,0.0,22,0.00,,,0.00,WUHU21423XXSP,2013-06-26 05:36:00,
2013-06-26 01:42:00,70.3,29.6,29.89,WNW,292,0.0,0.0,22,0.00,,,0.00,WUHU21423XXSP,2013-06-26 05:42:00,
2013-06-26 01:48:00,70.3,29.4,29.89,WNW,292,0.0,0.0,22,0.00,,,0.00,WUHU21423XXSP,2013-06-26 05:48:00,
2013-06-26 01:55:00,70.3,29.4,29.89,WNW,292,0.0,0.0,22,0.00,,,0.00,WUHU21423XXSP,2013-06-26 05:55:00,
2013-06-26 02:01:00,70.0,29.3,29.89,WNW,292,0.0,0.0,22,0.00,,,0.00,WUHU21423XXSP,2013-06-26 06:01:00,
2013-06-26 02:08:00,69.8,29.0,29.89,WNW,292,0.0,0.0,22,0.00,,,0.00,WUHU21423XXSP,2013-06-26 06:08:00,
2013-06-26 02:14:00,69.6,28.8,29.89,WNW,292,0.0,0.0,22,0.00,,,0.00,WUHU21423XXSP,2013-06-26 06:14:00,
2013-06-26 02:21:00,69.6,28.8,29.89,WNW,292,0.0,0.0,22,0.00,,,0.00,WUHU21423XXSP,2013-06-26 06:21:00,
2013-06-26 02:27:00,69.6,29.8,29.88,WNW,292,0.0,0.0,23,0.00,,,0.00,WUHU21423XXSP,2013-06-26 06:27:00,
2013-06-26 02:34:00,69.4,29.7,29.88,WNW,292,0.0,0.0,23,0.00,,,0.00,WUHU21423XXSP,2013-06-26 06:34:00,
2013-06-26 02:40:00,69.1,29.5,29.88,WNW,292,0.0,0.0,23,0.00,,,0.00,WUHU21423XXSP,2013-06-26 06:40:00,
2013-06-26 02:46:00,68.9,29.2,29.88,WNW,292,0.0,0.0,23,0.00,,,0.00,WUHU21423XXSP,2013-06-26 06:46:00,
2013-06-26 02:53:00,68.9,29.2,29.87,WNW,292,0.0,0.0,23,0.00,,,0.00,WUHU21423XXSP,2013-06-26 06:53:00,
2013-06-26 02:59:00,68.7,29.1,29.87,WNW,292,0.0,0.0,23,0.00,,,0.00,WUHU21423XXSP,2013-06-26 06:59:00,
2013-06-26 03:06:00,68.7,29.1,29.87,WNW,292,0.0,0.0,23,0.00,,,0.00,WUHU21423XXSP,2013-06-26 07:06:00,
2013-06-26 03:12:00,68.5,28.9,29.87,WNW,292,0.0,0.0,23,0.00,,,0.00,WUHU21423XXSP,2013-06-26 07:12:00,
2013-06-26 03:18:00,68.5,28.9,29.87,WNW,292,0.0,0.0,23,0.00,,,0.00,WUHU21423XXSP,2013-06-26 07:18:00,
2013-06-26 03:25:00,68.5,28.9,29.88,WNW,292,0.0,0.0,23,0.00,,,0.00,WUHU21423XXSP,2013-06-26 07:25:00,
2013-06-26 03:31:00,68.5,28.9,29.87,WNW,292,0.0,0.0,23,0.00,,,0.00,WUHU21423XXSP,2013-06-26 07:31:00,
2013-06-26 03:38:00,68.2,28.6,29.87,WNW,292,0.0,0.0,23,0.00,,,0.00,WUHU21423XXSP,2013-06-26 07:38:00,
2013-06-26 03:44:00,68.4,28.8,29.87,WNW,292,0.0,0.0,23,0.00,,,0.00,WUHU21423XXSP,2013-06-26 07:44:00,
2013-06-26 03:51:00,68.4,28.8,29.86,WNW,292,0.0,0.0,23,0.00,,,0.00,WUHU21423XXSP,2013-06-26 07:51:00,
2013-06-26 03:57:00,68.0,28.6,29.87,WNW,292,0.0,0.0,23,0.00,,,0.00,WUHU21423XXSP,2013-06-26 07:57:00,
2013-06-26 04:03:00,67.8,28.3,29.87,WNW,292,0.0,0.0,23,0.00,,,0.00,WUHU21423XXSP,2013-06-26 08:03:00,
2013-06-26 04:10:00,67.8,28.5,29.86,WNW,292,0.0,0.0,23,0.00,,,0.00,WUHU21423XXSP,2013-06-26 08:10:00,
2013-06-26 04:16:00,67.6,28.3,29.87,WNW,292,0.0,0.0,23,0.00,,,0.00,WUHU21423XXSP,2013-06-26 08:16:00,
2013-06-26 04:23:00,67.8,28.3,29.86,WNW,292,0.0,0.0,23,0.00,,,0.00,WUHU21423XXSP,2013-06-26 08:23:00,
2013-06-26 04:29:00,67.6,28.2,29.86,WNW,292,0.0,0.0,23,0.00,,,0.00,WUHU21423XXSP,2013-06-26 08:29:00,
2013-06-26 04:36:00,67.6,28.2,29.86,WNW,292,0.0,0.0,23,0.00,,,0.00,WUHU21423XXSP,2013-06-26 08:36:00,
2013-06-26 04:42:00,67.6,28.2,29.87,WNW,292,0.0,0.0,23,0.00,,,0.00,WUHU21423XXSP,2013-06-26 08:42:00,
2013-06-26 04:48:00,67.3,27.9,29.87,WNW,292,0.0,0.0,23,0.00,,,0.00,WUHU21423XXSP,2013-06-26 08:48:00,
2013-06-26 04:55:00,67.5,28.0,29.86,WNW,292,0.0,0.0,23,0.00,,,0.00,WUHU21423XXSP,2013-06-26 08:55:00,
2013-06-26 05:01:00,67.3,27.9,29.87,WNW,292,0.0,0.0,23,0.00,,,0.00,WUHU21423XXSP,2013-06-26 09:01:00,
2013-06-26 05:08:00,67.1,27.9,29.87,WNW,292,0.0,0.0,23,0.00,,,0.00,WUHU21423XXSP,2013-06-26 09:08:00,
2013-06-26 05:14:00,66.9,27.5,29.87,WNW,292,0.0,0.0,23,0.00,,,0.00,WUHU21423XXSP,2013-06-26 09:14:00,
2013-06-26 05:21:00,66.7,27.4,29.86,WNW,292,0.0,0.0,23,0.00,,,0.00,WUHU21423XXSP,2013-06-26 09:21:00,
2013-06-26 05:27:00,66.7,27.4,29.87,WNW,292,0.0,0.0,23,0.00,,,0.00,WUHU21423XXSP,2013-06-26 09:27:00,
2013-06-26 05:33:00,66.9,27.5,29.87,WNW,292,0.0,0.0,23,0.00,,,0.00,WUHU21423XXSP,2013-06-26 09:33:00,
2013-06-26 05:40:00,67.1,27.7,29.87,WNW,292,0.0,0.0,23,0.00,,,0.00,WUHU21423XXSP,2013-06-26 09:40:00,
2013-06-26 05:46:00,67.1,27.7,29.88,WNW,292,0.0,0.0,23,0.00,,,0.00,WUHU21423XXSP,2013-06-26 09:46:00,
2013-06-26 05:53:00,67.1,27.7,29.87,WNW,292,0.0,0.0,23,0.00,,,0.00,WUHU21423XXSP,2013-06-26 09:53:00,
2013-06-26 05:59:00,66.9,27.5,29.88,WNW,292,0.0,0.0,23,0.00,,,0.00,WUHU21423XXSP,2013-06-26 09:59:00,
2013-06-26 06:06:00,66.9,27.5,29.88,WNW,292,0.0,0.0,23,0.00,,,0.00,WUHU21423XXSP,2013-06-26 10:06:00,
2013-06-26 06:12:00,66.7,27.4,29.89,WNW,292,0.0,0.0,23,0.00,,,0.00,WUHU21423XXSP,2013-06-26 10:12:00,
2013-06-26 06:18:00,66.7,27.4,29.88,WNW,292,0.0,0.0,23,0.00,,,0.00,WUHU21423XXSP,2013-06-26 10:18:00,
2013-06-26 06:25:00,66.7,28.4,29.88,WNW,292,0.0,0.0,24,0.00,,,0.00,WUHU21423XXSP,2013-06-26 10:25:00,
2013-06-26 06:31:00,66.7,28.4,29.88,North,0,0.0,0.0,24,0.00,,,0.00,WUHU21423XXSP,2013-06-26 10:31:00,
2013-06-26 06:38:00,66.7,28.4,29.88,North,0,0.0,0.0,24,0.00,,,0.00,WUHU21423XXSP,2013-06-26 10:38:00,
2013-06-26 06:44:00,66.9,28.4,29.88,North,0,0.0,0.0,24,0.00,,,0.00,WUHU21423XXSP,2013-06-26 10:44:00,
2013-06-26 06:51:00,67.3,27.9,29.88,North,0,0.0,0.0,23,0.00,,,0.00,WUHU21423XXSP,2013-06-26 10:51:00,
2013-06-26 06:57:00,67.6,28.2,29.89,North,0,0.0,0.0,23,0.00,,,0.00,WUHU21423XXSP,2013-06-26 10:57:00,
2013-06-26 07:04:00,67.6,28.2,29.89,NE,45,0.0,0.0,23,0.00,,,0.00,WUHU21423XXSP,2013-06-26 11:04:00,
2013-06-26 07:10:00,68.2,28.3,29.89,West,270,0.0,0.0,23,0.00,,,0.00,WUHU21423XXSP,2013-06-26 11:10:00,
2013-06-26 07:16:00,68.9,29.2,29.90,West,270,0.0,0.0,23,0.00,,,0.00,WUHU21423XXSP,2013-06-26 11:16:00,
2013-06-26 07:23:00,69.4,29.7,29.89,West,270,0.0,0.0,23,0.00,,,0.00,WUHU21423XXSP,2013-06-26 11:23:00,
2013-06-26 07:29:00,70.0,30.1,29.90,West,270,0.0,0.0,23,0.00,,,0.00,WUHU21423XXSP,2013-06-26 11:29:00,
2013-06-26 07:36:00,70.3,30.4,29.90,West,270,0.0,0.0,23,0.00,,,0.00,WUHU21423XXSP,2013-06-26 11:36:00,
2013-06-26 07:42:00,71.2,30.1,29.90,West,270,0.0,0.0,22,0.00,,,0.00,WUHU21423XXSP,2013-06-26 11:42:00,
2013-06-26 07:48:00,71.8,30.6,29.90,ESE,112,0.0,0.0,22,0.00,,,0.00,WUHU21423XXSP,2013-06-26 11:48:00,
2013-06-26 07:55:00,72.3,31.1,29.89,ESE,112,0.0,0.0,22,0.00,,,0.00,WUHU21423XXSP,2013-06-26 11:55:00,
2013-06-26 08:01:00,73.2,31.9,29.89,ESE,112,0.0,0.0,22,0.00,,,0.00,WUHU21423XXSP,2013-06-26 12:01:00,
2013-06-26 08:08:00,74.1,31.6,29.89,ESE,112,0.0,0.0,21,0.00,,,0.00,WUHU21423XXSP,2013-06-26 12:08:00,
2013-06-26 08:14:00,74.8,32.2,29.89,WSW,247,0.0,0.0,21,0.00,,,0.00,WUHU21423XXSP,2013-06-26 12:14:00,
2013-06-26 08:20:00,75.6,32.6,29.89,WSW,247,0.0,0.0,21,0.00,,,0.00,WUHU21423XXSP,2013-06-26 12:20:00,
2013-06-26 08:27:00,75.7,32.9,29.89,WSW,247,0.0,0.0,21,0.00,,,0.00,WUHU21423XXSP,2013-06-26 12:27:00,
2013-06-26 08:33:00,76.5,33.2,29.89,WSW,247,0.0,0.0,21,0.00,,,0.00,WUHU21423XXSP,2013-06-26 12:33:00,
2013-06-26 08:40:00,76.8,33.8,29.89,SE,135,0.0,0.0,21,0.00,,,0.00,WUHU21423XXSP,2013-06-26 12:40:00,
2013-06-26 08:46:00,77.5,35.1,29.89,SE,135,0.0,0.0,22,0.00,,,0.00,WUHU21423XXSP,2013-06-26 12:46:00,
2013-06-26 08:53:00,78.4,35.9,29.89,NNE,22,0.0,0.0,22,0.00,,,0.00,WUHU21423XXSP,2013-06-26 12:53:00,
2013-06-26 08:59:00,79.0,40.8,29.89,NNE,22,0.0,0.0,26,0.00,,,0.00,WUHU21423XXSP,2013-06-26 12:59:00,
2013-06-26 09:06:00,79.9,46.5,29.89,ESE,112,0.0,0.0,31,0.00,,,0.00,WUHU21423XXSP,2013-06-26 13:06:00,
2013-06-26 09:12:00,80.8,49.6,29.89,ESE,112,0.0,0.0,34,0.00,,,0.00,WUHU21423XXSP,2013-06-26 13:12:00,
2013-06-26 09:18:00,81.0,50.7,29.89,WSW,247,0.0,0.0,35,0.00,,,0.00,WUHU21423XXSP,2013-06-26 13:18:00,
2013-06-26 09:25:00,80.8,51.2,29.88,SW,225,0.0,0.0,36,0.00,,,0.00,WUHU21423XXSP,2013-06-26 13:25:00,
2013-06-26 09:31:00,82.6,52.8,29.89,NW,315,0.0,0.0,36,0.00,,,0.00,WUHU21423XXSP,2013-06-26 13:31:00,
2013-06-26 09:38:00,83.8,56.3,29.88,NE,45,0.0,0.0,39,0.00,,,0.00,WUHU21423XXSP,2013-06-26 13:38:00,
2013-06-26 09:44:00,84.7,59.4,29.88,NE,45,0.0,0.0,44,0.00,,,0.00,WUHU21423XXSP,2013-06-26 13:44:00,
2013-06-26 09:50:00,85.3,62.8,29.88,NE,45,0.0,0.0,47,0.00,,,0.00,WUHU21423XXSP,2013-06-26 13:50:00,
2013-06-26 09:57:00,85.6,65.0,29.88,NE,45,0.0,0.0,50,0.00,,,0.00,WUHU21423XXSP,2013-06-26 13:57:00,
2013-06-26 10:03:00,85.8,65.7,29.88,NE,45,0.0,0.0,51,0.00,,,0.00,WUHU21423XXSP,2013-06-26 14:03:00,
2013-06-26 10:10:00,86.7,67.5,29.88,NE,45,0.0,0.0,53,0.00,,,0.00,WUHU21423XXSP,2013-06-26 14:10:00,
2013-06-26 10:16:00,87.1,68.9,29.87,East,90,0.0,0.0,55,0.00,,,0.00,WUHU21423XXSP,2013-06-26 14:16:00,
2013-06-26 10:23:00,87.6,69.4,29.87,East,90,0.0,0.0,56,0.00,,,0.00,WUHU21423XXSP,2013-06-26 14:23:00,
2013-06-26 10:29:00,88.3,71.2,29.87,ENE,67,0.0,0.0,57,0.00,,,0.00,WUHU21423XXSP,2013-06-26 14:29:00,
2013-06-26 10:35:00,88.0,71.4,29.87,ENE,67,0.0,0.0,58,0.00,,,0.00,WUHU21423XXSP,2013-06-26 14:35:00,
2013-06-26 10:42:00,88.5,71.9,29.87,ENE,67,0.0,0.0,58,0.00,,,0.00,WUHU21423XXSP,2013-06-26 14:42:00,
2013-06-26 10:48:00,89.2,72.5,29.87,ENE,67,0.0,0.0,58,0.00,,,0.00,WUHU21423XXSP,2013-06-26 14:48:00,
2013-06-26 10:55:00,88.5,72.4,29.87,SSW,202,0.0,0.0,59,0.00,,,0.00,WUHU21423XXSP,2013-06-26 14:55:00,
2013-06-26 11:01:00,88.9,72.8,29.87,East,90,0.0,0.0,59,0.00,,,0.00,WUHU21423XXSP,2013-06-26 15:01:00,
2013-06-26 11:08:00,89.2,73.1,29.88,SSE,157,0.0,0.0,59,0.00,,,0.00,WUHU21423XXSP,2013-06-26 15:08:00,
2013-06-26 11:14:00,89.1,73.5,29.88,SE,135,0.0,0.0,60,0.00,,,0.00,WUHU21423XXSP,2013-06-26 15:14:00,
2013-06-26 11:20:00,89.6,72.9,29.87,ESE,112,0.0,0.0,58,0.00,,,0.00,WUHU21423XXSP,2013-06-26 15:20:00,
2013-06-26 11:27:00,89.4,73.8,29.87,ESE,112,0.0,0.0,60,0.00,,,0.00,WUHU21423XXSP,2013-06-26 15:27:00,
2013-06-26 11:33:00,89.2,73.6,29.87,WNW,292,0.0,0.0,60,0.00,,,0.00,WUHU21423XXSP,2013-06-26 15:33:00,
2013-06-26 11:40:00,89.4,73.6,29.87,East,90,0.0,0.0,59,0.00,,,0.00,WUHU21423XXSP,2013-06-26 15:40:00,
2013-06-26 11:46:00,90.0,73.8,29.87,ENE,67,0.0,0.0,60,0.00,,,0.00,WUHU21423XXSP,2013-06-26 15:46:00,
2013-06-26 11:53:00,90.3,74.6,29.87,South,180,0.0,0.0,60,0.00,,,0.00,WUHU21423XXSP,2013-06-26 15:53:00,
2013-06-26 11:59:00,90.5,74.2,29.87,East,90,0.0,0.0,59,0.00,,,0.00,WUHU21423XXSP,2013-06-26 15:59:00,
2013-06-26 12:05:00,90.5,74.9,29.87,NW,315,0.0,0.0,60,0.00,,,0.00,WUHU21423XXSP,2013-06-26 16:05:00,
2013-06-26 12:12:00,90.3,74.6,29.87,ENE,67,0.0,0.0,60,0.00,,,0.00,WUHU21423XXSP,2013-06-26 16:12:00,
2013-06-26 12:18:00,91.0,74.5,29.87,ENE,67,0.0,0.0,59,0.00,,,0.00,WUHU21423XXSP,2013-06-26 16:18:00,
2013-06-26 12:25:00,90.5,74.8,29.87,ENE,67,0.0,0.0,60,0.00,,,0.00,WUHU21423XXSP,2013-06-26 16:25:00,
2013-06-26 12:31:00,90.1,74.4,29.87,ENE,67,0.0,0.0,60,0.00,,,0.00,WUHU21423XXSP,2013-06-26 16:31:00,
2013-06-26 12:37:00,89.4,74.2,29.87,ENE,67,0.0,0.0,61,0.00,,,0.00,WUHU21423XXSP,2013-06-26 16:37:00,
2013-06-26 12:44:00,89.8,74.1,29.87,East,90,0.0,0.0,61,0.00,,,0.00,WUHU21423XXSP,2013-06-26 16:44:00,
2013-06-26 12:50:00,90.3,74.6,29.87,East,90,0.0,0.0,60,0.00,,,0.00,WUHU21423XXSP,2013-06-26 16:50:00,
2013-06-26 12:57:00,90.9,75.1,29.86,East,90,0.0,0.0,60,0.00,,,0.00,WUHU21423XXSP,2013-06-26 16:57:00,
2013-06-26 13:03:00,90.9,75.1,29.86,SE,135,0.0,0.0,60,0.00,,,0.00,WUHU21423XXSP,2013-06-26 17:03:00,
2013-06-26 13:10:00,91.2,75.4,29.86,East,90,0.0,0.0,60,0.00,,,0.00,WUHU21423XXSP,2013-06-26 17:10:00,
2013-06-26 13:16:00,91.2,75.4,29.85,East,90,0.0,0.0,60,0.00,,,0.00,WUHU21423XXSP,2013-06-26 17:16:00,
2013-06-26 13:23:00,90.7,74.9,29.85,West,270,0.0,0.0,60,0.00,,,0.00,WUHU21423XXSP,2013-06-26 17:23:00,
2013-06-26 13:29:00,91.2,74.9,29.85,NW,315,0.0,0.0,60,0.00,,,0.00,WUHU21423XXSP,2013-06-26 17:29:00,
2013-06-26 13:35:00,91.8,75.9,29.84,North,0,0.0,0.0,60,0.00,,,0.00,WUHU21423XXSP,2013-06-26 17:35:00,
2013-06-26 13:42:00,92.1,76.3,29.84,NE,45,0.0,0.0,60,0.00,,,0.00,WUHU21423XXSP,2013-06-26 17:42:00,
2013-06-26 13:48:00,93.4,77.5,29.84,ESE,112,0.0,0.0,60,0.00,,,0.00,WUHU21423XXSP,2013-06-26 17:48:00,
2013-06-26 13:55:00,93.0,76.8,29.84,West,270,0.0,0.0,60,0.00,,,0.00,WUHU21423XXSP,2013-06-26 17:55:00,
2013-06-26 14:01:00,93.7,77.1,29.83,NNW,337,0.0,0.0,59,0.00,,,0.00,WUHU21423XXSP,2013-06-26 18:01:00,
2013-06-26 14:07:00,93.6,77.1,29.83,North,0,0.0,0.0,59,0.00,,,0.00,WUHU21423XXSP,2013-06-26 18:07:00,
2013-06-26 14:14:00,92.3,76.5,29.83,West,270,0.0,0.0,60,0.00,,,0.00,WUHU21423XXSP,2013-06-26 18:14:00,
2013-06-26 14:20:00,93.0,76.1,29.82,WNW,292,0.0,0.0,58,0.00,,,0.00,WUHU21423XXSP,2013-06-26 18:20:00,
2013-06-26 14:27:00,91.9,76.1,29.82,West,270,0.0,0.0,60,0.00,,,0.00,WUHU21423XXSP,2013-06-26 18:27:00,
2013-06-26 14:33:00,91.9,76.1,29.82,NNW,337,0.0,0.0,60,0.00,,,0.00,WUHU21423XXSP,2013-06-26 18:33:00,
2013-06-26 14:40:00,93.4,77.0,29.82,NW,315,0.0,0.0,59,0.00,,,0.00,WUHU21423XXSP,2013-06-26 18:40:00,
2013-06-26 14:46:00,94.3,78.3,29.82,ENE,67,0.0,0.0,60,0.00,,,0.00,WUHU21423XXSP,2013-06-26 18:46:00,
2013-06-26 14:52:00,93.6,78.3,29.81,ENE,67,0.0,0.0,59,0.00,,,0.00,WUHU21423XXSP,2013-06-26 18:52:00,
2013-06-26 14:59:00,92.8,77.0,29.81,ENE,67,0.0,0.0,60,0.00,,,0.00,WUHU21423XXSP,2013-06-26 18:59:00,
2013-06-26 15:05:00,92.5,76.6,29.80,NE,45,0.0,0.0,60,0.00,,,0.00,WUHU21423XXSP,2013-06-26 19:05:00,
2013-06-26 15:12:00,91.9,76.6,29.80,NNW,337,0.0,0.0,60,0.00,,,0.00,WUHU21423XXSP,2013-06-26 19:12:00,
2013-06-26 15:18:00,90.3,74.6,29.80,WNW,292,0.0,0.0,60,0.00,,,0.00,WUHU21423XXSP,2013-06-26 19:18:00,
2013-06-26 15:25:00,89.2,74.1,29.81,East,90,0.0,0.0,61,0.00,,,0.00,WUHU21423XXSP,2013-06-26 19:25:00,
2013-06-26 15:31:00,85.5,70.5,29.80,NE,45,3.8,9.8,61,0.00,,,0.00,WUHU21423XXSP,2013-06-26 19:31:00,
2013-06-26 15:37:00,82.8,68.4,29.80,WNW,292,3.6,3.8,62,0.00,,,0.00,WUHU21423XXSP,2013-06-26 19:37:00,
2013-06-26 15:44:00,78.6,64.0,29.80,NNE,22,1.3,3.6,56,0.00,,,0.00,WUHU21423XXSP,2013-06-26 19:44:00,
2013-06-26 15:50:00,76.5,60.0,29.80,ESE,112,0.0,1.3,55,0.00,,,0.00,WUHU21423XXSP,2013-06-26 19:50:00,
2013-06-26 15:57:00,75.7,54.7,29.80,West,270,0.0,0.0,48,0.00,,,0.00,WUHU21423XXSP,2013-06-26 19:57:00,
2013-06-26 16:03:00,75.0,50.9,29.81,East,90,0.0,0.0,43,0.00,,,0.00,WUHU21423XXSP,2013-06-26 20:03:00,
2013-06-26 16:09:00,74.8,49.5,29.81,ESE,112,0.0,1.8,40,0.00,,,0.00,WUHU21423XXSP,2013-06-26 20:09:00,
2013-06-26 16:16:00,74.3,47.0,29.80,East,90,0.0,1.1,38,0.00,,,0.00,WUHU21423XXSP,2013-06-26 20:16:00,
2013-06-26 16:22:00,73.9,44.4,29.81,ENE,67,2.9,3.8,35,0.00,,,0.00,WUHU21423XXSP,2013-06-26 20:22:00,
2013-06-26 16:29:00,73.6,45.6,29.81,ENE,67,4.5,4.5,37,0.00,,,0.00,WUHU21423XXSP,2013-06-26 20:29:00,
2013-06-26 16:35:00,73.2,43.7,29.81,ENE,67,0.0,4.5,35,0.00,,,0.00,WUHU21423XXSP,2013-06-26 20:35:00,
2013-06-26 16:41:00,73.2,43.0,29.81,East,90,0.0,0.0,34,0.00,,,0.00,WUHU21423XXSP,2013-06-26 20:41:00,
2013-06-26 16:48:00,73.2,42.2,29.82,East,90,0.0,0.0,33,0.00,,,0.00,WUHU21423XXSP,2013-06-26 20:48:00,
2013-06-26 16:54:00,73.6,41.0,29.83,East,90,2.2,2.2,31,0.00,,,0.00,WUHU21423XXSP,2013-06-26 20:54:00,
2013-06-26 17:01:00,73.2,40.0,29.83,East,90,4.7,4.7,30,0.00,,,0.00,WUHU21423XXSP,2013-06-26 21:01:00,
2013-06-26 17:07:00,73.2,38.9,29.82,ESE,112,1.8,4.7,29,0.00,,,0.00,WUHU21423XXSP,2013-06-26 21:07:00,
2013-06-26 17:14:00,73.0,39.8,29.81,ESE,112,0.0,4.7,30,0.00,,,0.00,WUHU21423XXSP,2013-06-26 21:14:00,
2013-06-26 17:20:00,73.2,38.9,29.80,ESE,112,0.0,1.8,29,0.00,,,0.00,WUHU21423XXSP,2013-06-26 21:20:00,
2013-06-26 17:27:00,73.2,38.9,29.80,North,0,0.0,1.6,29,0.00,,,0.00,WUHU21423XXSP,2013-06-26 21:27:00,
2013-06-26 17:33:00,73.2,37.9,29.80,NNW,337,0.0,0.0,28,0.00,,,0.00,WUHU21423XXSP,2013-06-26 21:33:00,
2013-06-26 17:39:00,73.2,37.9,29.82,ESE,112,4.5,4.5,27,0.00,,,0.00,WUHU21423XXSP,2013-06-26 21:39:00,
2013-06-26 17:46:00,73.0,37.8,29.81,East,90,3.1,4.5,28,0.00,,,0.00,WUHU21423XXSP,2013-06-26 21:46:00,
2013-06-26 17:53:00,73.0,35.8,29.82,East,90,0.0,3.1,26,0.00,,,0.00,WUHU21423XXSP,2013-06-26 21:53:00,
2013-06-26 17:59:00,73.0,34.8,29.82,ENE,67,1.3,2.0,25,0.00,,,0.00,WUHU21423XXSP,2013-06-26 21:59:00,
2013-06-26 18:05:00,73.0,34.8,29.81,ESE,112,0.0,1.8,25,0.00,,,0.00,WUHU21423XXSP,2013-06-26 22:05:00,
2013-06-26 18:11:00,73.0,34.8,29.83,ESE,112,0.0,0.9,25,0.00,,,0.00,WUHU21423XXSP,2013-06-26 22:11:00,
2013-06-26 18:18:00,73.2,34.9,29.83,ESE,112,0.0,0.0,25,0.00,,,0.00,WUHU21423XXSP,2013-06-26 22:18:00,
2013-06-26 18:24:00,73.2,34.9,29.83,ESE,112,0.0,0.0,25,0.00,,,0.00,WUHU21423XXSP,2013-06-26 22:24:00,
2013-06-26 18:31:00,73.2,35.9,29.83,ESE,112,0.0,0.0,26,0.00,,,0.00,WUHU21423XXSP,2013-06-26 22:31:00,
2013-06-26 18:37:00,73.8,36.2,29.84,ESE,112,0.0,0.0,26,0.00,,,0.00,WUHU21423XXSP,2013-06-26 22:37:00,
2013-06-26 18:43:00,74.1,36.7,29.83,NNE,22,0.0,0.0,26,0.00,,,0.00,WUHU21423XXSP,2013-06-26 22:43:00,
2013-06-26 18:50:00,74.5,37.0,29.83,NW,315,0.0,0.0,26,0.00,,,0.00,WUHU21423XXSP,2013-06-26 22:50:00,
2013-06-26 18:56:00,74.5,39.0,29.83,NW,315,0.0,2.2,28,0.00,,,0.00,WUHU21423XXSP,2013-06-26 22:56:00,
2013-06-26 19:03:00,74.3,41.7,29.83,WNW,292,0.7,2.2,31,0.00,,,0.00,WUHU21423XXSP,2013-06-26 23:03:00,
2013-06-26 19:09:00,74.1,42.3,29.83,West,270,0.0,4.0,33,0.00,,,0.00,WUHU21423XXSP,2013-06-26 23:09:00,
2013-06-26 19:16:00,74.1,43.8,29.83,WNW,292,0.0,4.0,34,0.00,,,0.00,WUHU21423XXSP,2013-06-26 23:16:00,
2013-06-26 19:22:00,74.1,43.8,29.83,WNW,292,1.3,1.3,34,0.00,,,0.00,WUHU21423XXSP,2013-06-26 23:22:00,
2013-06-26 19:29:00,73.9,44.4,29.84,WNW,292,0.0,1.3,35,0.00,,,0.00,WUHU21423XXSP,2013-06-26 23:29:00,
2013-06-26 19:35:00,73.8,44.2,29.84,WNW,292,0.0,0.0,35,0.00,,,0.00,WUHU21423XXSP,2013-06-26 23:35:00,
2013-06-26 19:41:00,73.6,44.0,29.84,WNW,292,0.0,0.0,35,0.00,,,0.00,WUHU21423XXSP,2013-06-26 23:41:00,
2013-06-26 19:48:00,73.2,43.0,29.84,North,0,0.0,0.0,34,0.00,,,0.00,WUHU21423XXSP,2013-06-26 23:48:00,
2013-06-26 19:54:00,73.0,42.8,29.84,NE,45,0.0,0.0,34,0.00,,,0.00,WUHU21423XXSP,2013-06-26 23:54:00,
2013-06-26 20:01:00,72.7,43.3,29.84,NE,45,0.0,0.0,35,0.00,,,0.00,WUHU21423XXSP,2013-06-27 00:01:00,
2013-06-26 20:07:00,72.5,43.1,29.84,North,0,0.0,2.5,35,0.00,,,0.00,WUHU21423XXSP,2013-06-27 00:07:00,
2013-06-26 20:13:00,72.1,42.8,29.84,North,0,0.0,0.0,35,0.00,,,0.00,WUHU21423XXSP,2013-06-27 00:13:00,
2013-06-26 20:20:00,72.0,42.7,29.84,North,0,0.0,0.0,35,0.00,,,0.00,WUHU21423XXSP,2013-06-27 00:20:00,
2013-06-26 20:26:00,71.8,42.5,29.84,North,0,0.0,0.0,35,0.00,,,0.00,WUHU21423XXSP,2013-06-27 00:26:00,
2013-06-26 20:33:00,71.4,41.5,29.84,North,0,0.0,0.0,34,0.00,,,0.00,WUHU21423XXSP,2013-06-27 00:33:00,
2013-06-26 20:39:00,71.2,41.3,29.85,North,0,0.0,0.0,34,0.00,,,0.00,WUHU21423XXSP,2013-06-27 00:39:00,
2013-06-26 20:45:00,71.1,41.1,29.84,North,0,0.0,0.0,34,0.00,,,0.00,WUHU21423XXSP,2013-06-27 00:45:00,
2013-06-26 20:52:00,70.5,40.1,29.85,North,0,0.0,0.0,33,0.00,,,0.00,WUHU21423XXSP,2013-06-27 00:52:00,
2013-06-26 20:58:00,70.3,39.9,29.85,North,0,0.0,0.0,32,0.00,,,0.00,WUHU21423XXSP,2013-06-27 00:58:00,
2013-06-26 21:05:00,70.2,38.8,29.85,North,0,0.0,0.0,32,0.00,,,0.00,WUHU21423XXSP,2013-06-27 01:05:00,
2013-06-26 21:11:00,69.6,37.6,29.84,North,0,0.0,0.0,31,0.00,,,0.00,WUHU21423XXSP,2013-06-27 01:11:00,
2013-06-26 21:18:00,69.4,37.5,29.85,North,0,0.0,0.0,31,0.00,,,0.00,WUHU21423XXSP,2013-06-27 01:18:00,
2013-06-26 21:24:00,69.3,36.6,29.85,NNW,337,0.0,0.0,30,0.00,,,0.00,WUHU21423XXSP,2013-06-27 01:24:00,
2013-06-26 21:31:00,69.3,36.6,29.84,NNW,337,0.0,0.0,30,0.00,,,0.00,WUHU21423XXSP,2013-06-27 01:31:00,
2013-06-26 21:37:00,69.1,35.4,29.84,NNW,337,0.0,0.0,29,0.00,,,0.00,WUHU21423XXSP,2013-06-27 01:37:00,
2013-06-26 21:43:00,68.7,35.1,29.84,NNW,337,0.0,0.0,29,0.00,,,0.00,WUHU21423XXSP,2013-06-27 01:43:00,
2013-06-26 21:50:00,68.5,34.9,29.83,NNW,337,0.0,0.0,29,0.00,,,0.00,WUHU21423XXSP,2013-06-27 01:50:00,
2013-06-26 21:56:00,68.4,34.7,29.83,NNW,337,0.0,0.0,29,0.00,,,0.00,WUHU21423XXSP,2013-06-27 01:56:00,
2013-06-26 22:03:00,68.2,34.6,29.83,NNW,337,0.0,0.0,29,0.00,,,0.00,WUHU21423XXSP,2013-06-27 02:03:00,
2013-06-26 22:09:00,68.2,32.6,29.84,NNW,337,0.0,0.0,27,0.00,,,0.00,WUHU21423XXSP,2013-06-27 02:09:00,
2013-06-26 22:15:00,68.2,32.6,29.83,NNW,337,0.0,0.0,27,0.00,,,0.00,WUHU21423XXSP,2013-06-27 02:15:00,
2013-06-26 22:22:00,68.0,32.5,29.84,NW,315,0.0,0.0,27,0.00,,,0.00,WUHU21423XXSP,2013-06-27 02:22:00,
2013-06-26 22:28:00,68.2,32.6,29.84,NW,315,0.0,0.0,27,0.00,,,0.00,WUHU21423XXSP,2013-06-27 02:28:00,
2013-06-26 22:35:00,68.2,31.6,29.83,WNW,292,0.0,0.0,26,0.00,,,0.00,WUHU21423XXSP,2013-06-27 02:35:00,
2013-06-26 22:41:00,68.2,31.6,29.83,West,270,0.0,0.0,26,0.00,,,0.00,WUHU21423XXSP,2013-06-27 02:41:00,
2013-06-26 22:48:00,68.2,31.6,29.83,West,270,0.0,0.0,26,0.00,,,0.00,WUHU21423XXSP,2013-06-27 02:48:00,
2013-06-26 22:54:00,67.8,31.3,29.84,West,270,0.0,0.0,26,0.00,,,0.00,WUHU21423XXSP,2013-06-27 02:54:00,
2013-06-26 23:00:00,67.8,31.3,29.83,West,270,0.0,0.0,26,0.00,,,0.00,WUHU21423XXSP,2013-06-27 03:00:00,
2013-06-26 23:07:00,67.6,30.2,29.83,West,270,0.0,0.0,25,0.00,,,0.00,WUHU21423XXSP,2013-06-27 03:07:00,
2013-06-26 23:13:00,67.6,30.2,29.84,West,270,0.0,0.0,25,0.00,,,0.00,WUHU21423XXSP,2013-06-27 03:13:00,
2013-06-26 23:20:00,67.3,30.0,29.84,West,270,0.0,0.0,25,0.00,,,0.00,WUHU21423XXSP,2013-06-27 03:20:00,
2013-06-26 23:26:00,67.3,29.9,29.84,West,270,0.0,0.0,25,0.00,,,0.00,WUHU21423XXSP,2013-06-27 03:26:00,
2013-06-26 23:33:00,67.6,30.2,29.84,West,270,0.0,0.0,25,0.00,,,0.00,WUHU21423XXSP,2013-06-27 03:33:00,
2013-06-26 23:39:00,67.6,30.2,29.84,West,270,0.0,0.0,25,0.00,,,0.00,WUHU21423XXSP,2013-06-27 03:39:00,
2013-06-26 23:45:00,67.6,30.2,29.84,West,270,0.0,0.0,25,0.00,,,0.00,WUHU21423XXSP,2013-06-27 03:45:00,
2013-06-26 23:52:00,67.6,30.2,29.84,West,270,0.0,0.0,24,0.00,,,0.00,WUHU21423XXSP,2013-06-27 03:52:00,
2013-06-26 23:58:00,67.6,29.2,29.84,West,270,0.0,0.0,24,0.00,,,0.00,WUHU21423XXSP,2013-06-27 03:58:00,